[[{"header":{"parameterUnit":"m.s-1","parameterCategory":1,"la1":30.2991,"la2":30.254,"lo1":-89.0895,"lo2":-89.0444,"dx":0.0017,"dy":0.0017,"nx":28,"ny":28,"refTime":"2022-11-08T09:00:00:Z","depth":0,"parameterNumber":2,"parameterNumberName":"U-component_of_WINDS"},"data":[0,0,0,0,0,0,0,0,0,0,0,0,0,0,0,0,0,0,0,0,0,0,0,0,0,0,0,0,0,0,0,0,0,0,0,0,0,0,0,0,0,0,0,0,0,0,0,0,0,0,0,0,0,0,0,0,0,0,-0.5165,-0.5165,0,-0.516,-0.516,-0.516,-0.5113,-0.5111,-0.511,-0.5109,-0.5105,-0.5106,-0.5107,0,0,0,0,0,0,0,0,0,0,0,0,0,-0.5138,-0.5139,-0.5165,-0.5165,-0.5165,-0.516,-0.516,-0.516,-0.5113,-0.5111,-0.511,-0.5109,-0.5104,-0.5106,-0.5107,0,0,0,0,0,0,0,0,0,0,0,0,0,-0.5143,-0.5139,-0.5165,-0.5141,-0.5139,-0.516,-0.516,-0.516,-0.5113,-0.5111,-0.511,-0.5108,-0.5104,-0.5106,-0.5107,-0.5151,0,0,-0.5111,-0.5112,0,0,0,0,0,0,0,0,-0.5143,-0.5144,-0.5145,-0.5143,-0.514,-0.5135,-0.5148,-0.5157,-0.5114,-0.5123,-0.5109,-0.5107,-0.5116,-0.5117,-0.512,-0.5151,-0.515,-0.5112,-0.5112,-0.5113,-0.5113,0,0,0,0,0,0,0,-0.5143,-0.5144,-0.5163,-0.5145,-0.5142,-0.5131,-0.513,-0.515,-0.513,-0.5122,-0.5119,-0.5118,-0.5115,-0.5118,-0.5119,-0.515,-0.5111,-0.5113,-0.5114,-0.5114,-0.5219,-0.5221,0,0,0,0,0,0,-0.5145,-0.5144,-0.5163,-0.5163,-0.5137,-0.5133,-0.5132,-0.5139,-0.5129,-0.5126,-0.512,-0.5116,-0.5117,-0.5117,-0.5119,-0.517,-0.5113,-0.5114,-0.5115,-0.5217,-0.522,-0.5222,0,0,0,0,0,0,-0.5145,-0.5147,-0.5164,-0.5153,-0.5154,-0.5136,-0.5143,-0.5139,-0.5143,-0.5128,-0.5124,-0.5127,-0.5115,-0.5117,-0.5144,-0.517,-0.5115,-0.5116,-0.5215,-0.5218,-0.5221,-0.5274,0,0,0,0,0,0,-0.5144,-0.5148,-0.5163,-0.5153,-0.5155,-0.5188,-0.5145,-0.5141,-0.5145,-0.514,-0.5133,-0.513,-0.5114,-0.5142,-0.5145,-0.5171,-0.5117,-0.5213,-0.5216,-0.522,-0.527,-0.5278,-0.5285,0,0,0,0,0,-0.5143,-0.5178,-0.5164,-0.5167,-0.5174,-0.5189,-0.519,-0.517,-0.5147,-0.5164,-0.5154,-0.5131,-0.5166,-0.5145,-0.5148,-0.5175,-0.5211,-0.5215,-0.5219,-0.5266,-0.5276,-0.5285,0,0,0,0,0,0,-0.5192,-0.5177,-0.5161,-0.5193,-0.5193,-0.5181,-0.5201,-0.5181,-0.5188,-0.5183,-0.5158,-0.5157,-0.5188,-0.5184,-0.516,-0.5218,-0.5185,-0.519,-0.5219,-0.5229,-0.5236,-0.5237,-0.5119,0,0,0,0,0,-0.5207,-0.522,-0.5206,-0.5236,-0.5237,-0.5219,-0.5225,-0.521,-0.5209,-0.5208,-0.5201,-0.5201,-0.5212,-0.522,-0.523,-0.5269,-0.5267,-0.5289,-0.5297,-0.5304,-0.5308,-0.533,-0.534,-0.5236,-0.5236,-0.5236,0,0,-0.5237,-0.523,-0.524,-0.5246,-0.5244,-0.5259,-0.5219,-0.5236,-0.5248,-0.5211,-0.5236,-0.5231,-0.523,-0.5263,-0.5278,-0.5261,-0.5337,-0.5309,-0.5314,-0.5316,-0.5336,-0.5345,-0.5354,-0.5239,-0.5238,-0.5238,0,0,-0.5299,-0.5295,-0.532,-0.5319,-0.5317,-0.5305,-0.5311,-0.5303,-0.5298,-0.5323,-0.5296,-0.5309,-0.5329,-0.533,-0.5333,-0.5398,-0.5377,-0.5402,-0.5443,-0.5464,-0.5473,-0.548,-0.5504,-0.5512,-0.5407,-0.5407,-0.5407,0,-0.5337,-0.5358,-0.5336,-0.5355,-0.5359,-0.5327,-0.5353,-0.5353,-0.5354,-0.5358,-0.5339,-0.5364,-0.5361,-0.5395,-0.5411,-0.5414,-0.5422,-0.5402,-0.5473,-0.548,-0.5486,-0.5509,-0.5518,-0.541,-0.5409,-0.5409,-0.5409,0,-0.5405,-0.542,-0.5441,-0.5443,-0.5449,-0.5472,-0.5454,-0.5464,-0.5449,-0.544,-0.5466,-0.5461,-0.547,-0.5477,-0.5462,-0.5509,-0.5499,-0.5477,-0.5444,-0.55,-0.5521,-0.5529,-0.5414,-0.5413,-0.5412,-0.5411,0,0,-0.5496,-0.5487,-0.5495,-0.5496,-0.5492,-0.5503,-0.5526,-0.5534,-0.5543,-0.5545,-0.5564,-0.5582,-0.5562,-0.5566,-0.5551,-0.557,-0.5623,-0.5546,-0.5545,-0.5561,-0.5676,-0.5693,-0.5703,-0.5609,-0.5611,-0.5612,-0.5676,0,-0.5557,-0.5593,-0.5575,-0.5614,-0.5629,-0.5599,-0.5618,-0.5619,-0.5611,-0.5623,-0.5615,-0.5629,-0.5601,-0.5603,-0.5621,-0.5613,-0.5646,-0.5608,-0.5627,-0.5628,-0.5628,-0.5714,-0.5731,-0.5792,-0.5684,-0.5686,-0.5687,0,-0.5632,-0.5638,-0.5678,-0.5673,-0.5678,-0.5696,-0.5703,-0.5714,-0.5714,-0.5708,-0.5713,-0.5694,-0.5717,-0.5684,-0.5715,-0.569,-0.5697,-0.5694,-0.5696,-0.5697,-0.5661,-0.5717,-0.5811,-0.582,-0.5699,-0.5698,-0.5697,0,-0.5695,-0.5713,-0.574,-0.5742,-0.5736,-0.5749,-0.5748,-0.5746,-0.5753,-0.5759,-0.5764,-0.5773,-0.5778,-0.5786,-0.5771,-0.5748,-0.5805,-0.5771,-0.5801,-0.5802,-0.5814,-0.5813,-0.591,-0.5818,-0.5818,-0.5818,-0.5818,0,-0.5765,-0.5791,-0.5769,-0.5785,-0.5814,-0.5794,-0.5823,-0.5819,-0.5818,-0.5834,-0.5809,-0.5825,-0.5804,-0.5818,-0.5806,-0.5835,-0.5837,-0.5833,-0.583,-0.5835,-0.5836,-0.5839,-0.5835,-0.582,-0.582,-0.5819,-0.5819,0,-0.584,-0.5826,-0.5854,-0.5846,-0.5845,-0.5867,-0.5861,-0.5877,-0.5868,-0.5889,-0.5892,-0.5879,-0.5895,-0.5881,-0.5895,-0.5888,-0.5926,-0.5916,-0.5925,-0.5923,-0.5954,-0.5952,-0.6056,-0.607,-0.597,-0.597,-0.5971,0,-0.5885,-0.5905,-0.59,-0.5909,-0.5908,-0.5923,-0.593,-0.5911,-0.592,-0.5922,-0.5938,-0.5951,-0.5961,-0.5987,-0.5979,-0.5991,-0.5982,-0.6018,-0.5983,-0.5989,-0.5983,-0.5982,-0.5984,-0.6025,-0.6026,-0.6027,-0.6028,0,-0.5967,-0.596,-0.5971,-0.598,-0.5989,-0.5995,-0.5999,-0.6008,-0.5989,-0.6,-0.6015,-0.6023,-0.6038,-0.6052,-0.6062,-0.6061,-0.6042,-0.6039,-0.6047,-0.6052,-0.6057,-0.6056,-0.5945,-0.6036,-0.6035,-0.6035,-0.6034,-0.6034,-0.6029,-0.6046,-0.6045,-0.6058,-0.606,-0.6065,-0.608,-0.6073,-0.6086,-0.6096,-0.6085,-0.6104,-0.6106,-0.6116,-0.6118,-0.6133,-0.6118,-0.6129,-0.6132,-0.6135,-0.614,-0.6055,-0.6135,-0.6135,-0.6134,-0.6134,-0.6134,0,-0.611,-0.6109,-0.6121,-0.6128,-0.6139,-0.612,-0.6125,-0.6135,-0.6152,-0.6155,-0.6165,-0.6184,-0.6198,-0.6192,-0.6204,-0.6218,-0.621,-0.6222,-0.6221,-0.6221,-0.6152,-0.6145,-0.6228,-0.6228,-0.6228,-0.6228,-0.6228,-0.6228,-0.6154,-0.6181,-0.6174,-0.6202,-0.6201,-0.6219,-0.6223,-0.6228,-0.6231,-0.6252,-0.6264,-0.626,-0.6259,-0.6272,-0.6284,-0.6282,-0.6288,-0.6304,-0.6299,-0.6235,-0.6226,-0.6217,-0.6209,-0.6305,-0.6305,-0.6366,-0.6367,-0.6367]},{"header":{"parameterUnit":"m.s-1","parameterCategory":1,"la1":30.2991,"la2":30.254,"lo1":-89.0895,"lo2":-89.0444,"dx":0.0017,"dy":0.0017,"nx":28,"ny":28,"refTime":"2022-11-08T09:00:00:Z","depth":0,"parameterNumber":3,"parameterNumberName":"V-component_of_WINDS"},"data":[0,0,0,0,0,0,0,0,0,0,0,0,0,0,0,0,0,0,0,0,0,0,0,0,0,0,0,0,0,0,0,0,0,0,0,0,0,0,0,0,0,0,0,0,0,0,0,0,0,0,0,0,0,0,0,0,0,0,-0.2013,-0.2013,0,-0.2022,-0.2022,-0.2022,-0.2015,-0.2014,-0.2014,-0.2014,-0.2025,-0.2026,-0.2027,0,0,0,0,0,0,0,0,0,0,0,0,0,-0.1991,-0.1991,-0.2013,-0.2013,-0.2013,-0.2022,-0.2022,-0.2022,-0.2015,-0.2014,-0.2014,-0.2014,-0.2025,-0.2026,-0.2027,0,0,0,0,0,0,0,0,0,0,0,0,0,-0.2,-0.1991,-0.2013,-0.201,-0.201,-0.2022,-0.2022,-0.2022,-0.2015,-0.2014,-0.2014,-0.2013,-0.2025,-0.2026,-0.2027,-0.2042,0,0,-0.203,-0.203,0,0,0,0,0,0,0,0,-0.2,-0.2001,-0.201,-0.201,-0.201,-0.2016,-0.2018,-0.2029,-0.2015,-0.2013,-0.2014,-0.2013,-0.2023,-0.2024,-0.2027,-0.2043,-0.2043,-0.203,-0.203,-0.2031,-0.2031,0,0,0,0,0,0,0,-0.1999,-0.2001,-0.2016,-0.2011,-0.201,-0.2009,-0.201,-0.202,-0.2021,-0.2013,-0.2013,-0.2014,-0.2023,-0.2026,-0.2027,-0.2043,-0.203,-0.203,-0.2031,-0.2031,-0.2072,-0.2072,0,0,0,0,0,0,-0.1998,-0.2,-0.2016,-0.2017,-0.2004,-0.201,-0.2011,-0.2015,-0.2021,-0.2021,-0.2014,-0.2013,-0.2025,-0.2026,-0.2028,-0.2046,-0.2031,-0.2032,-0.2032,-0.2071,-0.2072,-0.2072,0,0,0,0,0,0,-0.1998,-0.2,-0.2016,-0.2008,-0.201,-0.2011,-0.2016,-0.2015,-0.2019,-0.2021,-0.2021,-0.2017,-0.2024,-0.2026,-0.2038,-0.2046,-0.2032,-0.2033,-0.2071,-0.2071,-0.2072,-0.2082,0,0,0,0,0,0,-0.1997,-0.2,-0.2005,-0.2008,-0.201,-0.2026,-0.2016,-0.2016,-0.202,-0.2019,-0.2024,-0.2025,-0.2024,-0.2037,-0.2039,-0.2047,-0.2033,-0.207,-0.2071,-0.2072,-0.2081,-0.2083,-0.2085,0,0,0,0,0,-0.1996,-0.2008,-0.2005,-0.2007,-0.2017,-0.2026,-0.2027,-0.2026,-0.202,-0.2026,-0.2028,-0.2024,-0.2045,-0.2038,-0.2041,-0.2049,-0.2069,-0.2071,-0.2072,-0.208,-0.2083,-0.2085,0,0,0,0,0,0,-0.2007,-0.2009,-0.2006,-0.2018,-0.2022,-0.2025,-0.2032,-0.2029,-0.2035,-0.2034,-0.2032,-0.2034,-0.2046,-0.2049,-0.2042,-0.2064,-0.2056,-0.2058,-0.2062,-0.2064,-0.2066,-0.2066,-0.2034,0,0,0,0,0,-0.201,-0.2017,-0.2018,-0.203,-0.2031,-0.2031,-0.2035,-0.2034,-0.2038,-0.204,-0.2042,-0.2047,-0.2054,-0.2059,-0.2066,-0.2081,-0.2083,-0.2088,-0.209,-0.2092,-0.2093,-0.2102,-0.2104,-0.2076,-0.2076,-0.2076,0,0,-0.2018,-0.202,-0.2024,-0.2032,-0.2034,-0.2042,-0.2033,-0.2041,-0.2047,-0.2041,-0.2053,-0.2054,-0.206,-0.2073,-0.2079,-0.2076,-0.2101,-0.2093,-0.2094,-0.2095,-0.2103,-0.2106,-0.2108,-0.2077,-0.2077,-0.2077,0,0,-0.2036,-0.2038,-0.2048,-0.205,-0.2054,-0.2054,-0.2056,-0.2059,-0.206,-0.2071,-0.2067,-0.2074,-0.2087,-0.209,-0.2094,-0.2113,-0.211,-0.2115,-0.2125,-0.2134,-0.2136,-0.2138,-0.2145,-0.2147,-0.2117,-0.2117,-0.2117,0,-0.2046,-0.2056,-0.2053,-0.2062,-0.2065,-0.2059,-0.2069,-0.2072,-0.2078,-0.2081,-0.2076,-0.2092,-0.2095,-0.2109,-0.2114,-0.2117,-0.212,-0.2115,-0.2135,-0.2137,-0.2139,-0.2146,-0.2149,-0.2117,-0.2117,-0.2117,-0.2117,0,-0.2068,-0.2075,-0.2083,-0.2088,-0.2092,-0.2101,-0.21,-0.2105,-0.2102,-0.2103,-0.2114,-0.2118,-0.2125,-0.2128,-0.2127,-0.2142,-0.214,-0.2135,-0.2128,-0.2143,-0.2149,-0.2152,-0.2118,-0.2118,-0.2118,-0.2118,0,0,-0.2094,-0.2097,-0.21,-0.2102,-0.2105,-0.2111,-0.212,-0.2126,-0.213,-0.2135,-0.2142,-0.2153,-0.2148,-0.2153,-0.2151,-0.2158,-0.2173,-0.2153,-0.2153,-0.2157,-0.2191,-0.2195,-0.2198,-0.2171,-0.2171,-0.2172,-0.2191,0,-0.2113,-0.2128,-0.2125,-0.214,-0.2146,-0.214,-0.2148,-0.2151,-0.2152,-0.2158,-0.2159,-0.2166,-0.216,-0.2162,-0.2168,-0.217,-0.218,-0.2168,-0.2179,-0.218,-0.2179,-0.2202,-0.2206,-0.2224,-0.2193,-0.2194,-0.2194,0,-0.2137,-0.2141,-0.2156,-0.2158,-0.2161,-0.2168,-0.2173,-0.2179,-0.2183,-0.2183,-0.2187,-0.2184,-0.2193,-0.2185,-0.2198,-0.219,-0.2194,-0.2195,-0.2196,-0.2198,-0.2188,-0.2205,-0.223,-0.2233,-0.2198,-0.2198,-0.2197,0,-0.2155,-0.2165,-0.2175,-0.2177,-0.2179,-0.2184,-0.2186,-0.2188,-0.2192,-0.2197,-0.22,-0.2206,-0.221,-0.2215,-0.2214,-0.2208,-0.2228,-0.2219,-0.2229,-0.2229,-0.2234,-0.2234,-0.2261,-0.2235,-0.2235,-0.2235,-0.2235,0,-0.2177,-0.2187,-0.2183,-0.2189,-0.22,-0.2197,-0.2208,-0.2208,-0.2211,-0.2218,-0.2213,-0.2219,-0.2217,-0.2224,-0.2224,-0.2235,-0.2237,-0.2237,-0.2237,-0.2238,-0.2238,-0.2242,-0.2241,-0.2236,-0.2236,-0.2236,-0.2235,0,-0.22,-0.2197,-0.2208,-0.2209,-0.2209,-0.2217,-0.2218,-0.2225,-0.2224,-0.2233,-0.2235,-0.2234,-0.2242,-0.2241,-0.225,-0.225,-0.2264,-0.2262,-0.2263,-0.2263,-0.2272,-0.2272,-0.2303,-0.2307,-0.2278,-0.2279,-0.2279,0,-0.2214,-0.2221,-0.2222,-0.2226,-0.2228,-0.2234,-0.2238,-0.2234,-0.2238,-0.2242,-0.2248,-0.2255,-0.2261,-0.2273,-0.2274,-0.2281,-0.228,-0.229,-0.2281,-0.2282,-0.2281,-0.2281,-0.2282,-0.2293,-0.2293,-0.2293,-0.2293,0,-0.224,-0.2238,-0.2243,-0.2248,-0.2252,-0.2256,-0.2259,-0.2263,-0.226,-0.2265,-0.2272,-0.2276,-0.2284,-0.2292,-0.2298,-0.23,-0.2297,-0.2296,-0.2299,-0.23,-0.2301,-0.2301,-0.2268,-0.2296,-0.2295,-0.2295,-0.2295,-0.2295,-0.2259,-0.2265,-0.2267,-0.2273,-0.2275,-0.2278,-0.2284,-0.2283,-0.2289,-0.2295,-0.2293,-0.2301,-0.2304,-0.2312,-0.2315,-0.2322,-0.2318,-0.2322,-0.2323,-0.2324,-0.2325,-0.2299,-0.2323,-0.2323,-0.2322,-0.2322,-0.2322,0,-0.2286,-0.2286,-0.2291,-0.2296,-0.23,-0.2295,-0.2298,-0.2303,-0.231,-0.2313,-0.2318,-0.2326,-0.2333,-0.2334,-0.234,-0.2346,-0.2344,-0.2348,-0.2348,-0.2348,-0.2328,-0.2325,-0.2349,-0.2349,-0.2349,-0.2349,-0.2349,-0.2349,-0.23,-0.231,-0.2308,-0.2319,-0.232,-0.2327,-0.233,-0.2332,-0.2335,-0.2344,-0.2349,-0.2349,-0.2351,-0.2358,-0.2364,-0.2364,-0.2367,-0.2371,-0.2371,-0.2352,-0.235,-0.2347,-0.2345,-0.2372,-0.2372,-0.2391,-0.2391,-0.2391]}]]